TimeCST,TemperatureF,Dew PointF,Humidity,Sea Level PressureIn,VisibilityMPH,Wind Direction,Wind SpeedMPH,Gust SpeedMPH,PrecipitationIn,Events,Conditions,WindDirDegrees,DateUTC
12:52 AM,27.0,19.0,72,30.29,10.0,North,9.2,-,N/A,,Clear,350,2013-02-20 06:52:00
1:52 AM,24.1,18.0,77,30.28,10.0,NNW,5.8,-,N/A,,Clear,340,2013-02-20 07:52:00
2:52 AM,24.1,17.1,75,30.28,10.0,NNW,5.8,-,N/A,,Clear,330,2013-02-20 08:52:00
3:52 AM,25.0,15.1,66,30.29,10.0,NNW,6.9,-,N/A,,Clear,340,2013-02-20 09:52:00
4:52 AM,21.9,15.1,75,30.31,10.0,North,5.8,-,N/A,,Clear,350,2013-02-20 10:52:00
6:52 AM,21.9,14.0,72,30.32,10.0,North,3.5,-,N/A,,Unknown,350,2013-02-20 12:52:00
7:52 AM,26.1,14.0,60,30.35,10.0,North,10.4,-,N/A,,Clear,350,2013-02-20 13:52:00
8:52 AM,28.0,14.0,56,30.37,10.0,North,6.9,-,N/A,,Clear,360,2013-02-20 14:52:00
9:52 AM,28.0,12.9,53,30.38,10.0,NNW,4.6,-,N/A,,Clear,340,2013-02-20 15:52:00
10:52 AM,28.9,12.9,51,30.36,10.0,NNW,5.8,-,N/A,,Clear,340,2013-02-20 16:52:00
11:52 AM,30.0,14.0,51,30.35,10.0,NNW,3.5,-,N/A,,Clear,330,2013-02-20 17:52:00
12:52 PM,30.9,15.1,52,30.33,10.0,North,6.9,-,N/A,,Clear,10,2013-02-20 18:52:00
1:52 PM,32.0,14.0,48,30.34,10.0,NNW,6.9,-,N/A,,Clear,340,2013-02-20 19:52:00
2:52 PM,32.0,15.1,50,30.32,10.0,North,6.9,-,N/A,,Clear,350,2013-02-20 20:52:00
3:52 PM,34.0,14.0,44,30.29,10.0,NNE,5.8,-,N/A,,Clear,30,2013-02-20 21:52:00
5:52 PM,30.0,16.0,56,30.28,10.0,NE,6.9,-,N/A,,Clear,40,2013-02-20 23:52:00
6:52 PM,28.0,17.1,63,30.29,10.0,NNE,4.6,-,N/A,,Clear,30,2013-02-21 00:52:00
7:52 PM,27.0,18.0,69,30.30,10.0,NNE,5.8,-,N/A,,Clear,20,2013-02-21 01:52:00
9:52 PM,26.1,19.0,75,30.30,10.0,NNE,3.5,-,N/A,,Clear,30,2013-02-21 03:52:00
10:52 PM,27.0,19.0,72,30.29,10.0,NNE,8.1,-,N/A,,Scattered Clouds,30,2013-02-21 04:52:00
11:52 PM,26.1,18.0,71,30.28,10.0,NNE,5.8,-,N/A,,Clear,30,2013-02-21 05:52:00